Vancouver, WA

6:08 AM PDT on September 24, 2017 (GMT -0700)
Pearson

Weather History for KVUO - September, 2013

Change the Weather History Date:

Monday, September 16, 2013

  Actual Average Record
Temperature  
Mean Temperature 65 °F 64 °F  
Max Temperature 69 °F 76 °F 93 °F (1994)
Min Temperature 61 °F 52 °F 36 °F (1902)
Degree Days  
Heating Degree Days 0    
Month to date heating degree days 2  
Since 1 July heating degree days 15  
Cooling Degree Days 0    
Month to date cooling degree days 74  
Year to date cooling degree days 450  
Growing Degree Days 14 (Base 50)    
Moisture  
Dew Point 56 °F    
Average Humidity 74    
Maximum Humidity 84    
Minimum Humidity 63    
Precipitation  
Precipitation T in 0.05 in 0.65 in (1910)
Month to date precipitation 1.52 0.53  
Year to date precipitation 17.35 22.36  
Snow  
Snow 0.00 in - - ()
Month to date snowfall 0.0  
Snow Depth 0.00 in    
Sea Level Pressure  
Sea Level Pressure 29.94 in    
Wind  
Wind Speed 4 mph (SSW)    
Max Wind Speed 8 mph    
Max Gust Speed 12 mph    
Visibility 10 miles    
Events      
T = Trace of Precipitation, MM = Missing Value Source: NWS Daily Summary

Daily Weather History Graph

Daily Weather History Graph

Search for Another Location

Airport or City:

Trip Planner

Search our weather history database for the weather conditions in past years. The results will help you decide how hot, cold, wet, or windy it might be!

Date:

Astronomy

Sep. 16, 2013 Rise Set
Actual Time 6:50 AM PDT 7:19 PM PDT
Civil Twilight 6:20 AM PDT 7:48 PM PDT
Nautical Twilight 5:45 AM PDT 8:24 PM PDT
Astronomical Twilight 5:09 AM PDT 9:00 PM PDT
Moon 5:37 PM PDT (9/16) 3:35 AM PDT (9/16)
Length of Visible Light 13h 28m
Length of Day
12h 28m
Waxing Gibbous, 91% of the Moon is Illuminated
Sep 16
Waxing Gibbous
Sep 19
Full
Sep 26
Last Quarter
Oct 4
New
Oct 11
First Quarter

Hourly Weather History & Observations

Time (PDT) Temp. Dew Point Humidity Pressure Visibility Wind Dir Wind Speed Gust Speed Precip Events Conditions
12:53 AM 62.1 °F 55.0 °F 78% 29.89 in 10.0 mi SSE 3.5 mph - N/A   Mostly Cloudy
1:53 AM 62.1 °F 55.9 °F 80% 29.90 in 10.0 mi Calm Calm - N/A   Overcast
2:53 AM 62.1 °F 55.9 °F 80% 29.91 in 10.0 mi South 4.6 mph - N/A   Overcast
3:53 AM 62.1 °F 55.9 °F 80% 29.92 in 10.0 mi Variable 3.5 mph - N/A   Overcast
4:53 AM 62.1 °F 55.9 °F 80% 29.93 in 10.0 mi SSE 4.6 mph - N/A   Overcast
5:53 AM 62.1 °F 55.0 °F 78% 29.94 in 10.0 mi South 5.8 mph - N/A   Overcast
6:53 AM 61.0 °F 55.0 °F 81% 29.94 in 10.0 mi SW 5.8 mph - N/A   Overcast
7:53 AM 62.1 °F 55.0 °F 78% 29.95 in 10.0 mi South 4.6 mph - N/A   Overcast
8:53 AM 62.1 °F 55.0 °F 78% 29.96 in 10.0 mi South 4.6 mph - N/A   Overcast
9:53 AM 63.0 °F 55.0 °F 75% 29.96 in 10.0 mi SSW 4.6 mph - N/A   Overcast
10:53 AM 64.0 °F 55.9 °F 75% 29.97 in 10.0 mi Variable 4.6 mph - N/A   Overcast
11:40 AM 64.4 °F 55.4 °F 73% 29.97 in 10.0 mi Calm Calm - N/A   Overcast
11:53 AM 66.0 °F 55.0 °F 68% 29.98 in 10.0 mi Variable 3.5 mph - N/A   Overcast
12:45 PM 66.2 °F 55.4 °F 68% 29.98 in 10.0 mi Calm Calm - N/A   Overcast
12:53 PM 66.9 °F 55.9 °F 68% 29.98 in 10.0 mi SW 4.6 mph - N/A   Overcast
1:53 PM 68.0 °F 55.0 °F 63% 29.97 in 10.0 mi Variable 3.5 mph - N/A   Overcast
2:53 PM 68.0 °F 57.0 °F 68% 29.96 in 10.0 mi Variable 3.5 mph - 0.00 in   Mostly Cloudy
3:53 PM 68.0 °F 57.0 °F 68% 29.95 in 10.0 mi WSW 3.5 mph - N/A   Overcast
4:53 PM 66.9 °F 55.0 °F 66% 29.94 in 10.0 mi Variable 4.6 mph - N/A   Overcast
5:53 PM 66.9 °F 55.9 °F 68% 29.94 in 10.0 mi Calm Calm - N/A   Overcast
6:53 PM 66.9 °F 55.9 °F 68% 29.93 in 10.0 mi Calm Calm - N/A   Overcast
7:53 PM 64.9 °F 57.9 °F 78% 29.93 in 10.0 mi NW 5.8 mph - N/A   Overcast
8:53 PM 64.9 °F 57.9 °F 78% 29.93 in 10.0 mi Calm Calm - N/A   Overcast
9:53 PM 64.0 °F 57.9 °F 80% 29.92 in 10.0 mi Calm Calm - N/A   Overcast
10:53 PM - - N/A% 29.93 in 10.0 mi NNW 3.5 mph - N/A   Overcast
11:53 PM - - N/A% 29.93 in 10.0 mi Variable 3.5 mph - N/A   Overcast